CZ-4 DEB, 26181

Orbit data source: Space-Track

CZ-4 DEB, 26181 is space debris in SSO originally from a launch on Thu, 14 Oct 1999 UTC launched from the Taiyaun Space Center, China (TSC). Debris objects in space refer to the collection of defunct objects orbiting the Earth. Examples of debris include non-operational satellites, rocket bodies, and fragments generated from explosions, collisions, or faulty payload assembly.

Loading next visibility...
Identifier
26181, 1999-057BT
Orbit
SSO
Country
Flag of CNCN / PRC
Related business
Manufacturer
Unknown
Mission
Spacecraft
Bus & Motor
Unknown
Mass
Unknown
Launch date (UTC)
1999-10-14 (26 years ago)
Launch vehicle
Unknown
Launch site
Taiyaun Space Center, China (TSC)
Object type
Payload
Rocket body
Debris
Shape & HBR
Unknown shape, 0.2 m
Radar Cross Section
Small (<0.1 m²)

Expand to show TLE details & history
Last TLE update: 14 hours ago

TLE from 14 hours ago
0 CZ-4 DEB
1 26181U 99057BT  26093.59528590  .00001231  00000-0  24134-3 0  9995
2 26181  98.6838 310.7727 0013444 342.2566  78.2729 14.64673686386691
Epoch: 2026-04-03T14:17Z
TLE epoch observation values (Epoch: 2026-04-03T14:17:12.701Z)
Latitude
59.63044°
Longitude
-110.4823°
Altitude
686.313 km
Speed
7.52 km/s
True Right ascension
19h 42m 59s
True Declination
59° 28' 43"
Sunlit
Object was in daylight at epoch
Visualization orbit readout
Latitude
Unknown
Longitude
Unknown
Altitude
Unknown
Speed
Unknown
Apparent Right ascension
Unknown
Apparent Declination
Unknown
Sunlit
N/A
Visualization observer readout
Local Sidereal Time
09:52:54
Azimuth
Unknown
Elevation
Unknown
Doppler factor
Unknown
Orbital elements
Apogee altitude
684.704 km
Perigee altitude
665.739 km
Semi-major axis
7,053.358 km
Eccentricity
0.00134
Inclination
98.6838°
RAAN
310.7727°
Arg. of periapsis
342.2566°
True anomaly
78.42379°
Mean anomaly
78.2729°
Eccentric anomaly
78.34834°
Mean motion
3.66395 °/min
Orbital period
98.25 mins
BSTAR
0.00024134
Loading maneuver chart data...
Computing Atmospheric mass density...
Loading historical data...
Loading historical data...
Loading historical data...
Loading historical data...
Loading historical data...
Loading historical data...
Loading historical data...

Documentation

Showing up to 5 results
|